"Time","Temp","Dewpoint","Humidity","Pressure","Direction","Speed","Gust","Precip","PrecipRate"
"00:04:56","39.5","38.7","97","29.49","287","4","9.6","0.00","0.02"
"00:09:58","39.4","38.6","97","29.49","303","3.8","12","0.00","0.02"
"00:14:57","39.3","38.5","97","29.49","338","3.8","8.4","0.00","0.02"
"00:19:57","39.3","38.5","97","29.48","303","3.2","8.4","0.00","0.02"
"00:24:57","39.3","38.5","97","29.48","310","3.2","7.2","0.00","0.01"
"00:29:57","39.2","38.4","97","29.48","304","4.5","10.8","0.00","0.01"
"00:34:58","39.2","38.4","97","29.48","312","3.9","7.2","0.00","0.01"
"00:39:57","39.1","38.3","97","29.48","300","3.7","8.4","0.00","0.00"
"00:44:58","39.1","38.3","97","29.48","299","2.9","8.4","0.00","0.00"
"00:49:58","39.2","38.4","97","29.48","292","2.2","6","0.00","0.00"
"00:54:58","39.3","38.5","97","29.48","302","2.2","6","0.00","0.00"
"00:59:59","39.4","38.6","97","29.48","280","1.1","5.8","0.00","0.00"
"01:04:57","39.4","38.6","97","29.47","280","0.8","2.4","0.00","0.00"
"01:09:56","39.5","38.7","97","29.47","280","1.2","3.6","0.00","0.00"
"01:14:59","39.5","38.7","97","29.47","262","1.3","3.6","0.00","0.00"
"01:19:56","39.5","38.7","97","29.47","252","1.8","3.6","0.00","0.00"
"01:24:56","39.6","38.8","97","29.47","252","0.5","2.4","0.00","0.00"
"01:29:57","39.6","38.8","97","29.47","252","0","0","0.00","0.00"
"01:34:58","39.7","38.9","97","29.46","252","0","0","0.00","0.00"
"01:39:58","39.7","38.9","97","29.46","252","0","0","0.00","0.00"
"01:44:59","39.8","39","97","29.46","252","0","0","0.00","0.00"
"01:49:56","39.8","39","97","29.46","252","0","0","0.00","0.00"
"01:54:57","39.9","39.2","97.2","29.46","252","0","0","0.00","0.00"
"01:59:58","40","39.5","97.8","29.46","252","0.3","2.4","0.00","0.00"
"02:04:57","40.3","39.8","98","29.43","252","0","1.2","0.00","0.00"
"02:09:56","40.4","39.9","98","29.43","252","0","0","0.00","0.00"
"02:14:59","40.5","40","98","29.43","144","0.2","3.6","0.00","0.00"
"02:19:59","40.6","40.1","98","29.41","144","2.1","4.8","0.00","0.00"
"02:24:56","40.8","40.3","98","29.41","143","1.5","4.8","0.00","0.00"
"02:29:56","41","40.5","98","29.41","144","2.3","3.6","0.00","0.00"
"02:34:57","41.2","40.7","98","29.41","159","2.9","7.2","0.00","0.00"
"02:39:59","41.3","40.8","98","29.41","169","3.6","8.4","0.00","0.00"
"02:44:56","41.6","41.1","98","29.41","194","4.8","13.2","0.00","0.00"
"02:49:56","41.9","41.4","98","29.41","196","5.2","10.8","0.01","0.01"
"02:54:56","42.2","41.7","98","29.41","190","5.9","12","0.01","0.01"
"02:59:57","42.5","42","98","29.41","182","4.1","11.5","0.01","0.01"
"03:04:57","42.8","42.3","98","29.40","180","6.2","15","0.01","0.01"
"03:09:56","43.2","42.7","98","29.40","200","7.5","20.7","0.01","0.01"
"03:14:58","43.5","43","98","29.40","181","7.1","19.6","0.01","0.01"
"03:19:56","43.6","43.1","98","29.38","178","5.9","13.2","0.01","0.01"
"03:24:57","43.6","43.1","98","29.38","180","7.4","18.4","0.01","0.01"
"03:29:57","43.6","43.1","98","29.38","198","8","16.1","0.01","0.01"
"03:34:58","43.5","43","98","29.36","181","4.8","16.8","0.01","0.01"
"03:39:57","43.4","42.9","98","29.36","189","6.8","17.3","0.01","0.01"
"03:44:57","43.3","42.8","98","29.36","166","5","13.2","0.01","0.01"
"03:49:57","43.2","42.7","97.7","29.36","210","8","17.3","0.01","0.00"
"03:54:58","43.2","42.4","97","29.36","204","4.9","14.4","0.01","0.00"
"03:59:58","43.1","42.3","97","29.37","211","6.7","15","0.01","0.00"
"04:04:57","43.1","42.3","97","29.37","199","6.5","16.1","0.01","0.00"
"04:09:56","43.1","42.3","97","29.37","201","6","13.2","0.01","0.00"
"04:14:58","43","42.2","97","29.37","202","7.8","17.3","0.01","0.00"
"04:19:58","42.8","42","97","29.36","205","10.9","24.2","0.01","0.00"
"04:24:57","42.3","41.2","96.2","29.36","204","11.1","31.2","0.01","0.00"
"04:29:56","41.9","40.8","96","29.36","262","9.6","21.9","0.01","0.00"
"04:34:56","41.8","40.7","96","29.34","184","9.5","21.9","0.01","0.00"
"04:39:58","41.7","40.6","95.8","29.34","189","7.9","19.6","0.01","0.00"
"04:44:58","41.6","40.3","95","29.34","201","5.5","16.1","0.01","0.00"
"04:49:57","41.6","40.3","95","29.33","198","6.4","12","0.01","0.00"
"04:54:57","41.5","40.3","95.1","29.33","203","5.5","12","0.01","0.00"
"04:59:56","41.5","40.4","96","29.33","190","6.1","15","0.01","0.00"
"05:04:58","41.4","40.3","96","29.32","187","6","13.2","0.01","0.00"
"05:09:57","41.4","40.3","96","29.32","204","6.7","12","0.01","0.00"
"05:14:59","41.4","40.3","96","29.32","185","7","16.1","0.01","0.00"
"05:19:58","41.4","40.3","96","29.31","197","7.8","17.3","0.01","0.00"
"05:24:58","41.5","40.4","96","29.31","194","7.2","17.3","0.01","0.00"
"05:29:57","41.5","40.4","96","29.31","174","5.5","15.6","0.01","0.00"
"05:34:57","41.5","40.4","96","29.31","186","6.9","16.8","0.01","0.00"
"05:39:59","41.6","40.5","96","29.31","176","5.5","12","0.01","0.00"
"05:44:59","41.6","40.5","96","29.31","185","6.4","15","0.01","0.00"
"05:49:58","41.7","40.6","96","29.29","186","6.6","18.4","0.01","0.00"
"05:54:58","41.8","40.7","96","29.29","190","7.2","18.4","0.01","0.00"
"05:59:58","41.9","40.8","96","29.29","186","7.1","16.1","0.01","0.00"
"06:04:56","41.9","40.8","96","29.28","200","5.1","16.1","0.01","0.00"
"06:09:56","41.9","40.8","96","29.28","189","5","12","0.01","0.00"
"06:14:58","42","40.9","96","29.28","202","6.1","12","0.01","0.00"
"06:19:57","42.1","41","96","29.27","201","6","15","0.01","0.00"
"06:24:57","42.1","41","96","29.27","199","5.4","12","0.01","0.00"
"06:29:56","42.2","41.1","96","29.27","190","5.7","12","0.01","0.00"
"06:34:56","42.2","41.1","96","29.26","177","5.4","12","0.01","0.00"
"06:39:58","42.3","41.2","96","29.26","183","5.9","13.2","0.01","0.00"
"06:44:58","42.3","41.2","96","29.26","184","6.9","16.1","0.01","0.00"
"06:49:57","42.4","41.3","96","29.25","172","7.2","15.6","0.02","0.01"
"06:54:56","42.5","41.4","96","29.25","191","6.3","14.4","0.02","0.01"
"06:59:56","42.5","41.4","96","29.25","196","5.5","13.2","0.02","0.01"
"07:04:59","42.5","41.4","96","29.24","203","4.8","12.7","0.02","0.01"
"07:09:58","42.5","41.4","96","29.24","190","4.2","10.4","0.02","0.01"
"07:14:56","42.6","41.5","96","29.24","194","4.1","12","0.02","0.01"
"07:19:59","42.6","41.5","96","29.24","179","6.1","12","0.02","0.01"
"07:24:59","42.7","41.6","96","29.24","192","4.7","11.5","0.03","0.02"
"07:29:59","42.7","41.6","96","29.24","208","5.7","13.2","0.04","0.03"
"07:34:55","42.8","41.7","96","29.23","198","4.9","12","0.04","0.03"
"07:39:59","42.8","41.7","96","29.23","180","4","8.4","0.05","0.04"
"07:44:59","42.8","41.7","96","29.23","206","4.4","8.1","0.05","0.04"
"07:49:56","42.8","41.7","96","29.23","213","4.2","7.2","0.05","0.04"
"07:54:56","42.5","41.3","95.6","29.23","276","6.7","21.6","0.08","0.04"
"07:59:58","40.2","37.9","91.2","29.25","240","7.5","21.9","0.12","0.10"
"08:04:57","38.9","36.9","92.4","29.25","231","3.8","7.2","0.13","0.11"
"08:09:56","38.5","36.8","93.7","29.25","229","4","6.9","0.14","0.12"
"08:14:59","38.4","36.9","94.2","29.25","217","2.3","4.6","0.14","0.12"
"08:19:56","38.4","37.1","95","29.24","217","1.8","3.6","0.14","0.12"
"08:24:57","38.6","37.3","95","29.24","217","1.6","3.6","0.14","0.12"
"08:29:57","38.7","37.4","95","29.25","227","2.1","4.8","0.14","0.11"
"08:34:57","38.8","37.5","95","29.25","230","2.2","4.8","0.14","0.10"
"08:39:56","39","37.7","95.2","29.25","247","5.4","21.9","0.14","0.10"
"08:44:56","39.6","38","93.8","29.26","241","8.4","20.7","0.14","0.09"
"08:49:56","40.1","37.6","90.5","29.26","234","10.8","23","0.14","0.09"
"08:54:57","40.1","37.4","90.1","29.26","242","7.5","14.4","0.14","0.08"
"08:59:57","40","37.1","89.4","29.28","253","9.3","25.3","0.15","0.06"
"09:04:59","39.9","36.6","88","29.28","249","9.3","19.2","0.15","0.03"
"09:09:58","39.5","36.2","88","29.28","253","7.4","19.6","0.16","0.03"
"09:14:56","39","35.6","87.6","29.30","246","6.1","19.6","0.16","0.02"
"09:19:56","38.2","34.3","85.7","29.30","289","6.2","21.9","0.16","0.02"
"09:24:57","37.4","32.8","83.4","29.30","270","7.2","21.9","0.16","0.02"
"09:29:57","36.6","31.3","80.9","29.32","290","7.9","18.4","0.16","0.02"
"09:34:57","36.1","29.8","77.7","29.32","294","12.3","34.8","0.16","0.02"
"09:39:58","35.2","27.6","73.6","29.32","292","11.1","26.5","0.16","0.02"
"09:44:57","34.4","26.6","72.9","29.34","291","10.2","39.6","0.16","0.02"
"09:49:58","33.5","25","70.7","29.34","308","13.2","39.1","0.16","0.02"
"09:54:57","32.8","23.8","69.3","29.34","294","13.3","25.3","0.16","0.02"
"09:59:58","32.3","23","68.3","29.37","308","11.7","28.8","0.16","0.02"
"10:04:57","31.8","22.2","67.4","29.37","316","14.7","28.8","0.16","0.01"
"10:09:56","31.2","21.6","67.1","29.37","308","14.3","27.6","0.16","0.01"
"10:14:56","30.6","20.5","65.9","29.38","299","14.3","27.6","0.16","0.00"
"10:19:57","30.1","20","65.7","29.38","302","11.4","27.6","0.16","0.00"
"10:24:59","29.6","19","64.3","29.38","306","11.7","31.2","0.16","0.00"
"10:29:57","29","18.2","63.6","29.39","288","11.9","25.3","0.16","0.00"
"10:34:58","28.4","17.1","62.1","29.39","289","14.5","28.8","0.16","0.00"
"10:39:58","28.3","17","62.4","29.39","285","11.1","31.2","0.16","0.00"
"10:44:56","28.7","17.5","62.6","29.41","294","11.7","30","0.16","0.00"
"10:49:57","28.9","16.7","59.9","29.41","298","13.3","37.2","0.16","0.00"
"10:54:59","28.7","16.1","58.9","29.41","298","12.4","24.2","0.16","0.00"
"10:59:56","28.4","15.8","58.8","29.44","281","9.1","32.4","0.16","0.00"
"11:04:59","28.6","16.2","59.4","29.44","275","9.9","22.8","0.16","0.00"
"11:09:58","28.4","15.4","57.6","29.44","301","10.9","25.2","0.16","0.00"
"11:14:58","28.3","15.5","58.2","29.45","282","11.3","26.5","0.16","0.00"
"11:19:59","28.3","15.5","58.4","29.45","268","8.6","26.5","0.16","0.00"
"11:24:57","27.8","15","58.5","29.45","287","10.7","26.5","0.16","0.00"
"11:29:58","27.4","14.6","58.2","29.47","264","11.4","27.6","0.16","0.00"
"11:34:59","26.5","10.5","50.5","29.47","261","16.2","28.8","0.16","0.00"
"11:39:56","25.7","9.8","50.5","29.47","280","13.4","31.2","0.16","0.00"
"11:44:57","25.4","10","51.5","29.49","254","13.6","25.3","0.17","0.01"
"11:49:59","24.7","8.3","49","29.49","278","15.9","32.4","0.17","0.01"
"11:54:57","24.1","7.8","49.2","29.49","279","14","33.6","0.17","0.01"
"11:59:58","24","8.6","51.1","29.49","251","14.2","30","0.17","0.01"
"12:04:59","24","9","52.2","29.49","263","14.4","28.8","0.17","0.01"
"12:09:58","23.7","7.5","49.6","29.49","275","12.9","27.6","0.17","0.01"
"12:14:58","23.3","7.7","50.7","29.51","312","14.5","42.6","0.17","0.01"
"12:19:59","23.2","8","51.6","29.51","261","11.6","28.8","0.17","0.01"
"12:24:58","23.4","8.2","51.7","29.51","272","10.5","23","0.17","0.01"
"12:29:59","23.1","7.7","51.3","29.51","265","10.7","32.4","0.17","0.01"
"12:34:58","23.1","7.7","51.1","29.51","273","11.4","24","0.17","0.01"
"12:39:58","23.1","8.3","52.7","29.51","272","11.5","24.2","0.17","0.01"
"12:44:57","23.2","7.6","50.8","29.51","290","11.3","30","0.17","0.01"
"12:49:59","23.2","7.2","50","29.51","276","10.6","23","0.17","0.00"
"12:54:57","23.4","8.1","51.4","29.51","271","11","24","0.17","0.00"
"12:59:56","22.9","5.7","47.2","29.53","279","14.4","26.5","0.17","0.00"
"13:04:59","22.2","5.4","47.7","29.53","274","12.9","28.8","0.17","0.00"
"13:09:58","22.3","6","49.1","29.53","274","12.9","32.4","0.17","0.00"
"13:14:59","22.2","5.3","47.7","29.53","285","11.4","34.8","0.17","0.00"
"13:19:57","22.4","5","46.7","29.53","280","13.8","28.8","0.17","0.00"
"13:24:56","22","4.6","46.6","29.53","255","11.9","25.3","0.17","0.00"
"13:29:58","21.9","4.9","47.4","29.55","274","11.6","28.8","0.17","0.00"
"13:34:56","22","4.8","47","29.55","295","13.4","38.4","0.17","0.00"
"13:39:57","21.6","3.8","45.6","29.55","287","12.5","26.5","0.17","0.00"
"13:44:58","21.6","4.3","46.9","29.56","264","10.3","27.6","0.17","0.00"
"13:49:56","21.9","5","47.7","29.56","267","9.4","28.8","0.17","0.00"
"13:54:57","21.6","4.2","46.4","29.56","273","11.1","28.8","0.17","0.00"
"13:59:58","20.9","2.6","44.5","29.56","293","10.8","26.5","0.17","0.00"
"14:04:57","20.2","2.8","46.3","29.56","302","11","26.5","0.17","0.00"
"14:09:56","19.9","3.6","48.6","29.56","251","10","23","0.17","0.00"
"14:14:59","20.1","4.1","49.3","29.57","251","8.6","21.6","0.17","0.00"
"14:19:57","20.5","3.6","47.4","29.57","276","11.4","37.2","0.17","0.00"
"14:24:58","20.7","3.5","46.7","29.57","277","9.3","24.2","0.17","0.00"
"14:29:56","20.7","2.4","44.5","29.57","270","12.5","28.8","0.17","0.00"
"14:34:57","20.2","1.8","44.2","29.57","276","10.2","23","0.17","0.00"
"14:39:58","20.2","2.5","45.7","29.57","265","9.1","21.9","0.17","0.00"
"14:44:57","20.2","2.5","45.5","29.59","287","10.8","21.9","0.17","0.00"
"14:49:58","19.9","2.6","46.4","29.59","264","9.6","26.5","0.17","0.00"
"14:54:56","19.9","3","47.3","29.59","267","7.9","25.3","0.17","0.00"
"14:59:57","19.8","2.5","46.3","29.60","286","9.1","27.6","0.17","0.00"
"15:04:56","19.3","2","46.3","29.60","289","8.6","27.6","0.17","0.00"
"15:09:58","19.1","1.7","46.1","29.60","282","10.5","22.8","0.17","0.00"
"15:14:58","18.5","0.7","45.1","29.62","289","9.8","25.3","0.17","0.00"
"15:19:59","18.1","0.6","45.7","29.62","270","8.4","19.6","0.17","0.00"
"15:24:57","17.6","0.6","46.7","29.62","280","7.2","20.7","0.17","0.00"
"15:29:58","17.4","0.5","46.9","29.63","283","7.3","18.4","0.17","0.00"
"15:34:59","17.3","0.9","48","29.63","259","6.4","18.4","0.17","0.00"
"15:39:56","17.4","1.4","48.9","29.63","242","7.8","18.4","0.17","0.00"
"15:44:58","17.4","1.6","49.2","29.63","243","9.1","21.9","0.17","0.00"
"15:49:56","17.1","0","46.3","29.63","269","8","26.5","0.17","0.00"
"15:54:42","16.9","0.4","47.6","29.63","235","10","21.6","0.17","0.00"
"15:59:56","16.8","0.7","48.5","29.65","304","7.1","22.8","0.17","0.00"
"16:04:59","16.1","-0.8","46.6","29.65","304","9.5","23","0.17","0.00"
"16:09:57","15.7","-0.7","47.5","29.65","309","6.6","16.1","0.17","0.00"
"16:14:57","15.6","-0.5","48.3","29.66","283","5.7","16.1","0.17","0.00"
"16:19:59","15.6","0","49.3","29.66","263","5","12","0.17","0.00"
"16:24:57","15.5","-0.6","48.3","29.66","287","4.1","12","0.17","0.00"
"16:29:59","15.3","-1.1","47.7","29.67","288","6.9","15","0.17","0.00"
"16:34:56","15.2","-0.7","48.7","29.67","266","6.8","16.8","0.17","0.00"
"16:39:57","15.2","0","50.2","29.67","267","5.1","13.2","0.17","0.00"
"16:44:59","15.2","0.4","51.3","29.68","263","4.9","13.2","0.17","0.00"
"16:49:57","15.1","-0.6","49.1","29.68","257","4","12.7","0.17","0.00"
"16:54:59","15","-0.1","50.5","29.68","247","8.7","18.4","0.17","0.00"
"16:59:57","15.1","-0.3","49.9","29.69","234","7.2","24","0.17","0.00"
"17:04:57","15","-0.5","49.6","29.69","238","10.5","24.2","0.17","0.00"
"17:09:59","14.8","-1.1","48.5","29.69","257","9.7","21.6","0.17","0.00"
"17:14:56","14.7","-1.4","48.3","29.70","245","10.3","23","0.17","0.00"
"17:19:58","14.6","-0.9","49.5","29.70","242","7.3","16.1","0.17","0.00"
"17:24:57","14.5","-0.3","51.1","29.70","240","7.5","13.2","0.17","0.00"
"17:29:59","14.4","-1","49.9","29.70","238","11.1","23","0.17","0.00"
"17:34:57","14.2","-1.4","49.3","29.70","238","12","21.9","0.17","0.00"
"17:39:57","14","-1.4","49.7","29.70","253","10.1","19.6","0.17","0.00"
"17:44:56","13.9","-1.2","50.4","29.71","241","9.5","18.4","0.17","0.00"
"17:49:58","13.7","-1.6","49.8","29.71","244","8.5","20.7","0.17","0.00"
"17:54:56","13.5","-1.7","49.8","29.71","245","10.4","20.7","0.17","0.00"
"17:59:58","13.4","-2","49.5","29.72","236","8.9","17.3","0.17","0.00"
"18:04:57","13.3","-2.1","49.5","29.72","249","8.2","17.3","0.17","0.00"
"18:09:59","13.2","-2.1","49.9","29.72","237","11.2","21.9","0.17","0.00"
"18:14:57","13","-2","50.4","29.73","237","9.2","17.3","0.17","0.00"
"18:19:59","12.9","-2.2","50.3","29.73","233","10.3","19.6","0.17","0.00"
"18:24:58","12.8","-2.9","48.8","29.73","248","8.2","16.1","0.17","0.00"
"18:29:56","12.7","-2.4","50.2","29.74","236","8.8","17.3","0.17","0.00"
"18:34:58","12.7","-2.8","49.3","29.74","247","10","26.5","0.17","0.00"
"18:39:59","12.6","-2.7","49.7","29.74","247","8.2","17.3","0.17","0.00"
"18:44:57","12.5","-2.8","49.7","29.74","236","10.2","17.3","0.17","0.00"
"18:49:59","12.4","-2.5","50.3","29.74","229","10.6","19.6","0.17","0.00"
"18:54:57","12.3","-2.5","50.7","29.74","238","10.4","18.4","0.17","0.00"
"18:59:56","12.2","-2.9","50","29.75","252","11","20.4","0.17","0.00"
"19:04:59","12.1","-2.8","50.6","29.75","242","8.4","16.1","0.17","0.00"
"19:09:58","11.9","-2.6","51.3","29.75","236","10.2","23","0.17","0.00"
"19:14:59","11.8","-2.8","51.1","29.75","241","8.6","17.3","0.17","0.00"
"19:19:57","11.7","-2.9","51.3","29.75","241","8","18","0.17","0.00"
"19:24:56","11.7","-3.4","49.9","29.75","274","7.2","19.2","0.17","0.00"
"19:29:58","11.6","-3.5","49.8","29.76","263","7.4","21.9","0.17","0.00"
"19:34:56","11.6","-3.5","50","29.76","222","7.5","15","0.17","0.00"
"19:39:56","11.5","-3.2","51","29.76","251","6.8","16.1","0.17","0.00"
"19:44:59","11.4","-3.5","50.4","29.76","262","9.8","26.5","0.17","0.00"
"19:49:57","11.4","-3.4","50.8","29.76","267","6.6","22.8","0.17","0.00"
"19:54:59","11.3","-3.5","50.5","29.76","253","6.3","18.4","0.17","0.00"
"19:59:58","11.3","-3.6","50.3","29.77","256","4.6","12","0.17","0.00"
"20:04:59","11.2","-3.2","51.5","29.77","248","5.1","13.2","0.17","0.00"
"20:09:58","11.1","-3","52.3","29.77","256","5.1","12","0.17","0.00"
"20:14:59","11","-3","52.5","29.77","266","4.1","13.2","0.17","0.00"
"20:19:57","10.9","-3.1","52.5","29.77","256","4.9","13.2","0.17","0.00"
"20:24:59","10.8","-3.6","51.4","29.77","272","6.4","15","0.17","0.00"
"20:29:57","10.8","-3.8","50.9","29.77","259","5.2","12","0.17","0.00"
"20:34:59","10.7","-3.2","52.7","29.77","277","3.7","7.2","0.17","0.00"
"20:39:56","10.6","-3.3","52.6","29.77","263","3","7.2","0.17","0.00"
"20:44:58","10.6","-3.1","53.2","29.78","232","5","12","0.17","0.00"
"20:49:56","10.6","-3.4","52.5","29.78","253","6","13.2","0.17","0.00"
"20:54:58","10.6","-3.3","52.8","29.78","229","4.7","13.2","0.17","0.00"
"20:59:56","10.5","-3.1","53.4","29.79","243","3.4","7.2","0.17","0.00"
"21:04:56","10.4","-3.4","52.9","29.79","302","3.1","8.4","0.17","0.00"
"21:09:58","10.3","-3","54.1","29.79","272","2.6","6","0.17","0.00"
"21:14:59","10.3","-2.7","54.9","29.79","281","2.8","6","0.17","0.00"
"21:19:57","10.3","-3","54.3","29.79","297","2.9","12","0.17","0.00"
"21:24:59","10.3","-2.9","54.5","29.79","298","2.6","11.5","0.17","0.00"
"21:29:58","10.3","-2.7","55","29.81","345","1.7","3.5","0.17","0.00"
"21:34:56","10.1","-2.5","55.9","29.81","342","0.7","3.6","0.17","0.00"
"21:39:57","10","-2.4","56.5","29.81","342","0.4","2.4","0.17","0.00"
"21:44:59","9.9","-2.5","56.7","29.82","342","0.1","1.2","0.17","0.00"
"21:49:57","9.7","-2.2","57.7","29.82","342","0.6","3.6","0.17","0.00"
"21:54:56","9.6","-2.8","56.5","29.82","342","1.2","3.6","0.17","0.00"
"21:59:58","9.6","-2.4","57.6","29.82","342","1.1","2.4","0.17","0.00"
"22:04:58","9.5","-2","59","29.82","337","1.6","6","0.17","0.00"
"22:09:57","9.4","-2.4","58.2","29.82","299","2.2","5.8","0.17","0.00"
"22:14:57","9.4","-2.7","57.2","29.82","310","2.6","5.8","0.17","0.00"
"22:19:59","9.4","-2.7","57.3","29.82","292","3.2","7.2","0.17","0.00"
"22:24:58","9.4","-2.5","57.6","29.82","303","3","6","0.17","0.00"
"22:29:59","9.4","-2.5","57.7","29.83","312","3","7.2","0.17","0.00"
"22:34:58","9.4","-2.4","58","29.83","285","2.6","4.8","0.17","0.00"
"22:39:59","9.4","-2.6","57.4","29.83","273","2.4","8.4","0.17","0.00"
"22:44:58","9.4","-2.7","57.4","29.84","282","1.8","8.1","0.17","0.00"
"22:49:56","9.3","-2.5","58.2","29.84","281","1.8","3.6","0.17","0.00"
"22:54:58","9.2","-2.3","58.7","29.84","268","1.6","4.8","0.17","0.00"
"22:59:56","9.2","-2.1","59.4","29.84","264","1.2","3.6","0.17","0.00"
"23:04:56","9.2","-2.4","58.5","29.84","268","1.8","4.8","0.17","0.00"
"23:09:59","9.2","-2.1","59.5","29.84","274","2.1","3.6","0.17","0.00"
"23:14:56","9.2","-2.5","58.3","29.84","285","1.5","4.8","0.17","0.00"
"23:19:58","9.2","-2.2","59","29.84","280","1.6","4.6","0.17","0.00"
"23:24:57","9.2","-2.1","59.5","29.84","268","1.3","3.6","0.17","0.00"
"23:29:59","9.1","-2","59.9","29.85","283","1.7","6","0.17","0.00"
"23:34:57","9.1","-2","59.8","29.85","304","4.1","13.2","0.17","0.00"
"23:39:58","9.3","-2.7","57.3","29.85","285","3.8","10.8","0.17","0.00"
"23:44:56","9.5","-2.6","57.2","29.86","257","2.9","12","0.17","0.00"
"23:49:58","9.5","-2.7","56.9","29.86","234","2.7","6.9","0.17","0.00"
"23:54:56","9.5","-3","56.2","29.86","276","3.4","13.2","0.17","0.00"
